DW4719 Vilanova I la Geltru ES current weather conditions

sailwx.info

Wind from 088 at 3 knots

Air temperature 28.3° C
Dewpoint 17.2° C

Last reported at 2015-Jul-02 17:51 UTC.
Time now 2015-Jul-02 18:13 UTC

Location: N 41°13' E 001°44'.
View on Google Maps.

See reports from other nearby stations

  
Tides and Currents Weather Stations Pressure Air Temp Water Temp Dewpoint Dewpoint Depression Visibility Wind Speed Wind Dir Waves Ship Positions
date/time (UTC)wind fromknots sea level pressurealtimeterstation pressurevisibilityair tempwater tempwave heightnotes
2015-Jul-02 17:51 088 3 28.3
2015-Jul-02 17:46 092 4 28.3
2015-Jul-02 17:41 127 5 28.3
2015-Jul-02 17:36 083 2 27.8
2015-Jul-02 17:31 102 1 28.3
2015-Jul-02 17:26 116 4 27.8
2015-Jul-02 17:20 117 6 27.8
2015-Jul-02 17:16 109 6 27.8
2015-Jul-02 17:11 079 6 27.8
2015-Jul-02 17:04 107 3 27.8
2015-Jul-02 17:00 076 2 27.8
2015-Jul-02 16:55 103 4 27.2
2015-Jul-02 16:51 114 5 27.2
2015-Jul-02 16:46 095 6 27.2
2015-Jul-02 16:40 071 6 27.8
2015-Jul-02 16:36 102 6 27.8
2015-Jul-02 16:31 099 6 27.8
2015-Jul-02 16:25 096 6 27.8
2015-Jul-02 16:21 083 5 27.8
2015-Jul-02 16:16 066 5 28.3
2015-Jul-02 16:11 095 5 28.3
2015-Jul-02 16:05 066 5 28.3
2015-Jul-02 16:01 097 4 28.3
2015-Jul-02 15:55 116 4 28.3
2015-Jul-02 15:50 113 5 28.3
2015-Jul-02 15:45 086 6 28.3
2015-Jul-02 15:41 075 5 28.3
2015-Jul-02 15:36 086 4 28.3
2015-Jul-02 15:30 064 6 28.3
2015-Jul-02 15:25 083 6 28.3
2015-Jul-02 15:21 079 3 28.3
2015-Jul-02 15:16 126 5 28.3
2015-Jul-02 15:10 092 5 28.3
2015-Jul-02 15:05 107 4 28.3
2015-Jul-02 15:00 097 5 28.3
2015-Jul-02 14:56 120 5 28.3
2015-Jul-02 14:51 093 6 28.3
2015-Jul-02 14:45 078 6 27.8
2015-Jul-02 14:40 096 6 27.8
2015-Jul-02 14:36 126 6 27.8
2015-Jul-02 14:31 104 6 28.3
2015-Jul-02 14:26 093 6 28.3
2015-Jul-02 14:20 088 6 28.9
2015-Jul-02 14:15 096 6 28.9
2015-Jul-02 14:11 089 6 28.9
2015-Jul-02 14:05 112 6 28.9
2015-Jul-02 14:00 128 6 28.9
2015-Jul-02 13:56 096 4 28.3
2015-Jul-02 13:50 089 4 28.3
2015-Jul-02 13:45 110 7 27.8
2015-Jul-02 13:40 083 7 27.8
2015-Jul-02 13:35 114 6 27.8
2015-Jul-02 13:31 109 6 27.8
2015-Jul-02 13:25 083 5 28.3
2015-Jul-02 13:20 103 4 28.9
2015-Jul-02 13:15 079 4 28.9
2015-Jul-02 13:10 078 4 28.9
2015-Jul-02 13:05 110 4 29.4
2015-Jul-02 13:01 103 2 29.4
2015-Jul-02 12:56 086 2 29.4
2015-Jul-02 12:51 068 4 29.4
2015-Jul-02 12:45 130 5 29.4
2015-Jul-02 12:40 100 5 29.4
2015-Jul-02 12:36 127 5 29.4
2015-Jul-02 12:30 110 5 29.4
2015-Jul-02 12:25 082 5 29.4
2015-Jul-02 12:20 095 6 29.4
2015-Jul-02 12:15 089 6 28.9
2015-Jul-02 12:09 109 6 28.9
2015-Jul-02 12:06 075 6 28.9
2015-Jul-02 12:01 092 6 29.4
2015-Jul-02 11:55 086 6 29.4
2015-Jul-02 11:50 082 7 28.9
2015-Jul-02 11:46 073 6 29.4
2015-Jul-02 11:40 088 6 29.4
2015-Jul-02 11:35 100 6 28.9
2015-Jul-02 11:31 088 6 28.9
2015-Jul-02 11:26 106 6 28.9
2015-Jul-02 11:21 088 6 28.9
2015-Jul-02 11:16 116 6 28.9
2015-Jul-02 11:10 102 6 28.3
2015-Jul-02 11:06 127 6 28.9
2015-Jul-02 11:00 128 6 28.9
2015-Jul-02 10:55 088 6 28.9
2015-Jul-02 10:51 086 8 28.9
2015-Jul-02 10:39 120 7 28.9
2015-Jul-02 10:35 092 6 28.9
2015-Jul-02 10:30 128 6 28.9
2015-Jul-02 10:25 085 6 28.9
2015-Jul-02 10:21 155 6 28.9
2015-Jul-02 10:16 078 6 28.3
2015-Jul-02 10:10 082 6 28.3
2015-Jul-02 10:05 107 6 27.8
2015-Jul-02 10:00 069 6 27.8
2015-Jul-02 09:55 083 6 27.8
2015-Jul-02 09:51 089 6 27.2
2015-Jul-02 09:45 110 6 27.2
2015-Jul-02 09:40 103 7 27.2
2015-Jul-02 09:36 080 6 27.2
2015-Jul-02 09:31 104 6 27.2
2015-Jul-02 09:26 100 6 27.2
2015-Jul-02 09:20 110 6 27.2
2015-Jul-02 09:15 097 6 27.2
2015-Jul-02 09:11 124 6 27.2
2015-Jul-02 09:06 109 6 27.8
2015-Jul-02 09:00 107 6 27.8
2015-Jul-02 08:55 100 6 27.8
2015-Jul-02 08:51 126 7 27.8
2015-Jul-02 08:45 124 6 27.8
2015-Jul-02 08:40 096 5 28.3
2015-Jul-02 08:35 086 5 27.8
2015-Jul-02 08:31 114 4 27.8
2015-Jul-02 08:25 110 4 27.8
2015-Jul-02 08:20 090 4 28.3
2015-Jul-02 08:16 109 3 28.3
2015-Jul-02 08:11 078 3 28.3
2015-Jul-02 08:05 100 4 28.3
2015-Jul-02 08:01 120 4 28.3
2015-Jul-02 07:56 110 2 28.3
2015-Jul-02 07:50 095 1 28.3
2015-Jul-02 07:45 133 28.3
2015-Jul-02 07:41 068 28.3
2015-Jul-02 07:36 056 28.3
2015-Jul-02 07:31 049 28.3
2015-Jul-02 07:25 048 28.3
2015-Jul-02 07:20 047 28.3
2015-Jul-02 07:16 035 28.3
2015-Jul-02 07:11 049 27.8
2015-Jul-02 07:06 049 27.8
2015-Jul-02 07:01 041 27.2
2015-Jul-02 06:56 014 26.7
2015-Jul-02 06:50 018 26.7
2015-Jul-02 06:45 008 26.7
2015-Jul-02 06:41 001 26.1
2015-Jul-02 06:36 360 26.1
2015-Jul-02 06:31 354 26.1
2015-Jul-02 06:25 038 25.6
2015-Jul-02 06:20 038 25.6
2015-Jul-02 06:16 065 25.6
2015-Jul-02 06:11 072 25.6
2015-Jul-02 06:06 055 25.6
2015-Jul-02 06:01 065 25.0
2015-Jul-02 05:56 065 25.0
2015-Jul-02 05:51 066 25.0
2015-Jul-02 05:45 034 25.0
2015-Jul-02 05:40 078 24.4
2015-Jul-02 05:35 078 24.4
2015-Jul-02 05:30 078 24.4
2015-Jul-02 05:26 319 24.4
2015-Jul-02 05:21 326 23.9
2015-Jul-02 05:15 323 23.9
2015-Jul-02 05:10 323 23.9
2015-Jul-02 05:05 040 23.9
2015-Jul-02 05:00 045 24.4
2015-Jul-02 04:56 045 24.4
2015-Jul-02 04:51 044 24.4
2015-Jul-02 04:45 044 24.4
2015-Jul-02 04:40 027 23.9
2015-Jul-02 04:35 017 23.9
2015-Jul-02 04:30 024 23.9
2015-Jul-02 04:26 054 24.4
2015-Jul-02 04:20 024 24.4
2015-Jul-02 04:15 353 24.4
2015-Jul-02 04:10 008 24.4
2015-Jul-02 04:05 003 25.0
2015-Jul-02 04:00 001 25.0
2015-Jul-02 03:55 003 25.0
2015-Jul-02 03:51 001 25.0
2015-Jul-02 03:46 049 25.6
2015-Jul-02 03:41 052 1 25.6
2015-Jul-02 03:36 052 1 25.6
2015-Jul-02 03:30 055 0 25.6
2015-Jul-02 03:25 034 0 25.6
2015-Jul-02 03:21 089 0 26.1
2015-Jul-02 03:16 092 26.1
2015-Jul-02 03:11 097 26.1
2015-Jul-02 03:05 068 0 26.1
2015-Jul-02 03:01 089 0 26.1
2015-Jul-02 02:55 114 26.1
2015-Jul-02 02:50 112 26.1
2015-Jul-02 02:46 112 26.1
2015-Jul-02 02:41 052 26.1
2015-Jul-02 02:36 102 0 26.1
2015-Jul-02 02:31 083 0 26.1
2015-Jul-02 02:26 088 26.1
2015-Jul-02 02:20 072 26.1
2015-Jul-02 02:15 072 26.1
2015-Jul-02 02:11 072 0 26.1
2015-Jul-02 02:05 086 0 25.6
2015-Jul-02 02:01 095 25.6
2015-Jul-02 01:55 051 25.0
2015-Jul-02 01:50 051 25.0
2015-Jul-02 01:45 051 25.0
2015-Jul-02 01:41 051 25.0
2015-Jul-02 01:36 051 25.0
2015-Jul-02 01:31 051 25.0
2015-Jul-02 01:25 051 25.0
2015-Jul-02 01:20 051 25.0
2015-Jul-02 01:15 051 25.0
2015-Jul-02 01:11 049 25.0
2015-Jul-02 01:05 068 25.0
2015-Jul-02 01:00 068 25.0
2015-Jul-02 00:55 068 25.0
2015-Jul-02 00:51 072 25.0
2015-Jul-02 00:45 073 25.6
2015-Jul-02 00:40 073 25.6
2015-Jul-02 00:35 073 25.6
2015-Jul-02 00:30 075 25.6
2015-Jul-02 00:26 075 25.6
2015-Jul-02 00:20 073 25.6
2015-Jul-02 00:15 075 25.6
2015-Jul-02 00:10 075 25.6
2015-Jul-02 00:06 073 25.6
2015-Jul-02 00:00 073 25.6
2015-Jul-01 23:55 075 26.1
2015-Jul-01 23:51 075 26.1
2015-Jul-01 23:46 075 26.1
2015-Jul-01 23:41 058 26.1
2015-Jul-01 23:35 054 0 26.1
2015-Jul-01 23:30 059 0 26.1
2015-Jul-01 23:26 061 0 26.1
2015-Jul-01 23:21 051 2 26.1
2015-Jul-01 23:15 049 3 26.7
2015-Jul-01 23:10 049 0 26.7
2015-Jul-01 23:05 055 26.7
2015-Jul-01 23:00 059 26.7
2015-Jul-01 22:56 066 26.7
2015-Jul-01 22:50 079 26.7
2015-Jul-01 22:45 082 26.7
2015-Jul-01 22:41 082 26.7
2015-Jul-01 22:36 082 27.2
2015-Jul-01 22:31 082 27.2
2015-Jul-01 22:25 082 27.2
2015-Jul-01 22:21 082 27.2
2015-Jul-01 22:16 082 0 27.2
2015-Jul-01 22:11 080 0 27.2
2015-Jul-01 22:05 052 0 27.2
2015-Jul-01 22:01 051 0 27.2
2015-Jul-01 21:55 051 27.2
2015-Jul-01 21:50 051 27.2
2015-Jul-01 21:46 071 0 27.2
2015-Jul-01 21:41 041 26.7
2015-Jul-01 21:35 088 26.7
2015-Jul-01 21:30 100 26.7
2015-Jul-01 21:26 099 26.7
2015-Jul-01 21:21 071 27.2
2015-Jul-01 21:15 064 0 27.2
2015-Jul-01 21:10 071 0 27.2
2015-Jul-01 21:06 099 27.2
2015-Jul-01 21:01 089 27.8
2015-Jul-01 20:55 086 27.8
2015-Jul-01 20:51 107 27.8
2015-Jul-01 20:46 086 27.8
2015-Jul-01 20:41 073 27.8
2015-Jul-01 20:35 073 1 27.8
2015-Jul-01 20:30 086 3 27.8
2015-Jul-01 20:26 076 2 27.2
2015-Jul-01 20:21 082 0 27.2
2015-Jul-01 20:15 076 27.8
2015-Jul-01 20:10 100 27.8
2015-Jul-01 20:06 093 27.2
2015-Jul-01 20:00 093 27.2
2015-Jul-01 19:55 093 27.2
2015-Jul-01 19:50 093 27.2
2015-Jul-01 19:45 093 27.2
2015-Jul-01 19:41 093 27.2
2015-Jul-01 19:36 096 27.2
2015-Jul-01 19:31 096 27.2
2015-Jul-01 19:25 096 27.2
2015-Jul-01 19:20 095 27.2
2015-Jul-01 19:15 096 27.2
2015-Jul-01 19:10 097 27.2
2015-Jul-01 19:05 092 27.2
2015-Jul-01 19:00 092 27.2
2015-Jul-01 18:55 088 27.2
2015-Jul-01 18:50 102 27.8
2015-Jul-01 18:46 106 27.8
2015-Jul-01 18:41 110 0 27.8
2015-Jul-01 18:36 090 1 27.8
2015-Jul-01 18:31 080 0 27.8
2015-Jul-01 18:25 114 0 27.8
2015-Jul-01 18:20 078 0 27.8
2015-Jul-01 18:16 117 0 28.3
2015-Jul-01 18:11 079 0 27.8
2015-Jul-01 18:06 103 1 27.8
2015-Jul-01 18:01 103 2 27.8
2015-Jul-01 17:55 100 2 27.8
2015-Jul-01 17:50 095 1 27.8
2015-Jul-01 17:45 104 3 27.8
2015-Jul-01 17:41 088 2 27.8
2015-Jul-01 17:36 092 2 27.8
2015-Jul-01 17:31 096 3 27.2
2015-Jul-01 17:25 092 3 27.2
2015-Jul-01 17:20 090 4 27.2
2015-Jul-01 17:16 126 4 27.2
2015-Jul-01 17:11 086 5 27.2
2015-Jul-01 17:05 133 5 27.2
2015-Jul-01 17:01 095 5 27.2
2015-Jul-01 16:55 112 5 27.2
2015-Jul-01 16:50 086 5 27.2
2015-Jul-01 16:46 107 5 27.2
2015-Jul-01 16:41 095 5 27.8
2015-Jul-01 16:36 103 4 27.8
2015-Jul-01 16:30 099 5 27.8
2015-Jul-01 16:26 093 6 27.8
2015-Jul-01 16:21 064 5 27.8
2015-Jul-01 16:11 104 4 27.8
2015-Jul-01 16:10 157 5 27.8
2015-Jul-01 16:05 121 5 27.8
2015-Jul-01 16:00 088 5 28.3
2015-Jul-01 15:55 092 5 28.3
2015-Jul-01 15:50 097 3 28.3
2015-Jul-01 15:46 080 3 27.8
2015-Jul-01 15:41 083 3 27.2
2015-Jul-01 15:36 092 3 27.2
2015-Jul-01 15:30 130 5 27.2
2015-Jul-01 15:25 092 6 27.2
2015-Jul-01 15:21 131 5 27.2
2015-Jul-01 15:16 090 6 27.2
2015-Jul-01 15:11 130 5 27.2
2015-Jul-01 15:06 138 5 27.8
2015-Jul-01 15:00 124 4 27.8
2015-Jul-01 14:55 128 4 27.8
2015-Jul-01 14:51 103 5 27.8
2015-Jul-01 14:46 085 6 27.8
2015-Jul-01 14:41 080 5 27.8
2015-Jul-01 14:36 093 4 27.8
2015-Jul-01 14:30 121 1 27.8
2015-Jul-01 14:25 083 3 27.8
2015-Jul-01 14:20 140 6 27.2
2015-Jul-01 14:16 124 6 27.2
2015-Jul-01 14:11 075 6 27.2
2015-Jul-01 14:06 110 6 27.2
2015-Jul-01 14:00 096 6 27.2
2015-Jul-01 13:55 119 6 27.2
2015-Jul-01 13:50 144 6 27.2
2015-Jul-01 13:46 130 6 27.2
2015-Jul-01 13:41 072 5 27.2
2015-Jul-01 13:36 121 5 27.2
2015-Jul-01 13:30 128 5 27.2
2015-Jul-01 13:25 104 4 27.2
2015-Jul-01 13:21 128 4 27.2
2015-Jul-01 13:16 138 4 27.2
2015-Jul-01 13:11 143 5 27.2
2015-Jul-01 13:06 151 5 27.2
2015-Jul-01 13:00 116 5 27.2
2015-Jul-01 12:55 128 5 27.2
2015-Jul-01 12:51 085 4 27.2
2015-Jul-01 12:46 119 5 27.2
2015-Jul-01 12:41 121 7 26.7
2015-Jul-01 12:36 141 9 26.7
2015-Jul-01 12:30 113 6 27.2
2015-Jul-01 12:25 089 6 27.2
2015-Jul-01 12:21 126 6 27.2
2015-Jul-01 12:16 093 6 27.2
2015-Jul-01 12:11 116 6 27.2
2015-Jul-01 12:06 120 5 27.8
2015-Jul-01 12:00 071 3 27.8
2015-Jul-01 11:56 096 3 27.8
2015-Jul-01 11:51 090 6 27.2
2015-Jul-01 11:46 113 6 27.2
2015-Jul-01 11:40 095 6 27.2
2015-Jul-01 11:35 120 5 27.2
2015-Jul-01 11:31 092 4 27.2
2015-Jul-01 11:26 119 4 27.2
2015-Jul-01 11:21 110 5 27.2
2015-Jul-01 11:16 121 5 27.2
2015-Jul-01 11:10 079 5 27.2
2015-Jul-01 11:05 104 5 27.2
2015-Jul-01 11:00 127 6 27.2
2015-Jul-01 10:56 130 5 26.7
2015-Jul-01 10:51 137 3 27.2
2015-Jul-01 10:45 112 2 27.2
2015-Jul-01 10:40 141 4 27.2
2015-Jul-01 10:36 113 5 26.7
2015-Jul-01 10:31 127 5 26.7
2015-Jul-01 10:25 133 8 26.1
2015-Jul-01 10:20 158 9 26.1
2015-Jul-01 10:15 130 8 26.1
2015-Jul-01 10:11 114 6 26.7
2015-Jul-01 10:06 104 4 27.2
2015-Jul-01 10:01 107 3 27.2
2015-Jul-01 09:55 123 2 27.2
2015-Jul-01 09:50 095 3 27.2
2015-Jul-01 09:45 130 3 27.2
2015-Jul-01 09:40 124 3 27.8
2015-Jul-01 09:36 106 2 27.8
2015-Jul-01 09:30 161 3 27.8
2015-Jul-01 09:25 157 3 27.8
2015-Jul-01 09:20 104 3 27.8
2015-Jul-01 09:16 080 2 28.3
2015-Jul-01 09:11 119 3 28.3
2015-Jul-01 09:05 095 3 28.3
2015-Jul-01 09:00 113 3 27.8
2015-Jul-01 08:55 103 3 27.8
2015-Jul-01 08:50 138 3 27.8
2015-Jul-01 08:45 127 4 27.8
2015-Jul-01 08:41 110 4 27.8
2015-Jul-01 08:36 107 3 27.8
2015-Jul-01 08:30 086 2 27.8
2015-Jul-01 08:25 147 2 27.8
2015-Jul-01 08:20 157 2 27.8
2015-Jul-01 08:16 145 2 27.8
2015-Jul-01 08:11 126 3 28.3
2015-Jul-01 08:06 124 3 28.3
2015-Jul-01 08:00 143 2 28.9
2015-Jul-01 07:55 120 1 28.9
2015-Jul-01 07:51 127 0 29.4
2015-Jul-01 07:46 055 29.4
2015-Jul-01 07:41 034 29.4
2015-Jul-01 07:36 034 29.4
2015-Jul-01 07:30 034 28.9
2015-Jul-01 07:25 034 28.9
2015-Jul-01 07:21 034 28.3
2015-Jul-01 07:16 034 27.8
2015-Jul-01 07:10 041 27.8
2015-Jul-01 07:05 041 27.2
2015-Jul-01 07:01 052 27.2
2015-Jul-01 06:56 052 26.7
2015-Jul-01 06:50 052 26.1
2015-Jul-01 06:45 052 26.1
2015-Jul-01 06:40 052 26.1
2015-Jul-01 06:35 052 25.6
2015-Jul-01 06:30 052 25.0
2015-Jul-01 06:25 052 25.0
2015-Jul-01 06:20 052 24.4
2015-Jul-01 06:15 052 23.9
2015-Jul-01 06:10 052 23.9
2015-Jul-01 06:05 054 23.9
2015-Jul-01 06:00 055 23.3
2015-Jul-01 05:55 055 23.3
2015-Jul-01 05:50 059 23.3
2015-Jul-01 05:45 058 22.8
2015-Jul-01 05:40 058 22.8
2015-Jul-01 05:36 058 22.8
2015-Jul-01 05:31 058 22.2
2015-Jul-01 05:26 058 22.2
2015-Jul-01 05:21 052 22.2
2015-Jul-01 05:16 051 21.7
2015-Jul-01 05:10 051 21.7
2015-Jul-01 05:05 048 21.7
2015-Jul-01 05:00 049 21.7
2015-Jul-01 04:55 048 21.7
2015-Jul-01 04:50 048 21.7
2015-Jul-01 04:45 052 21.7
2015-Jul-01 04:41 054 21.7
2015-Jul-01 04:36 052 21.7
2015-Jul-01 04:30 051 21.7
2015-Jul-01 04:25 051 21.7
2015-Jul-01 04:20 051 21.7
2015-Jul-01 04:16 051 21.7
2015-Jul-01 04:11 049 21.7
2015-Jul-01 04:05 049 21.7
2015-Jul-01 04:00 051 21.7
2015-Jul-01 03:55 051 21.7
2015-Jul-01 03:50 049 21.7
2015-Jul-01 03:45 049 21.7
2015-Jul-01 03:40 049 21.7
2015-Jul-01 03:35 049 22.2
2015-Jul-01 03:30 049 22.2
2015-Jul-01 03:25 049 22.2
2015-Jul-01 03:20 049 22.2
2015-Jul-01 03:15 049 22.2
2015-Jul-01 03:11 049 22.8
2015-Jul-01 03:05 049 22.2
2015-Jul-01 03:00 049 22.2
2015-Jul-01 02:55 049 22.2
2015-Jul-01 02:50 052 22.2
2015-Jul-01 02:46 059 22.2
2015-Jul-01 02:41 055 22.2
2015-Jul-01 02:36 055 22.2
2015-Jul-01 02:30 052 22.2
2015-Jul-01 02:25 080 22.2
2015-Jul-01 02:20 080 22.2
2015-Jul-01 02:15 080 22.2
2015-Jul-01 02:10 082 22.2
2015-Jul-01 02:05 082 22.2
2015-Jul-01 02:00 082 22.2
2015-Jul-01 01:55 082 22.2
2015-Jul-01 01:51 082 22.2
2015-Jul-01 01:46 082 22.2
2015-Jul-01 01:41 082 22.2
2015-Jul-01 01:36 082 22.2
2015-Jul-01 01:30 082 22.2
2015-Jul-01 01:25 083 22.2
2015-Jul-01 01:20 083 22.8
2015-Jul-01 01:15 083 22.8
2015-Jul-01 01:11 083 22.8
2015-Jul-01 01:05 083 22.8
2015-Jul-01 01:01 083 22.8
2015-Jul-01 00:56 085 22.8
2015-Jul-01 00:51 085 22.8
2015-Jul-01 00:46 085 22.8
2015-Jul-01 00:40 086 22.8
2015-Jul-01 00:35 086 22.8
2015-Jul-01 00:30 086 22.8
2015-Jul-01 00:26 089 22.8
2015-Jul-01 00:21 089 22.8
2015-Jul-01 00:16 089 22.8
2015-Jul-01 00:11 089 23.3
2015-Jul-01 00:06 089 23.3
2015-Jul-01 00:00 092 23.3
2015-Jun-30 23:55 100 23.3
2015-Jun-30 23:51 100 23.3
2015-Jun-30 23:46 103 23.3
2015-Jun-30 23:41 103 23.3
2015-Jun-30 23:36 103 23.3
2015-Jun-30 23:30 103 23.3
2015-Jun-30 23:26 103 23.3
2015-Jun-30 23:21 103 23.3
2015-Jun-30 23:16 104 23.3
2015-Jun-30 23:10 106 23.9
2015-Jun-30 23:05 106 23.9
2015-Jun-30 23:00 112 23.9
2015-Jun-30 22:55 112 23.9
2015-Jun-30 22:50 120 23.9
2015-Jun-30 22:45 120 23.9
2015-Jun-30 22:40 121 23.9
2015-Jun-30 22:35 128 23.9
2015-Jun-30 22:31 128 23.9
2015-Jun-30 22:25 152 23.9
2015-Jun-30 22:20 154 23.9
2015-Jun-30 22:15 154 24.4
2015-Jun-30 22:10 155 25.0
2015-Jun-30 22:05 155 25.0
2015-Jun-30 22:00 155 25.0
2015-Jun-30 21:55 155 25.0
2015-Jun-30 21:51 155 25.0
2015-Jun-30 21:46 155 25.0
2015-Jun-30 21:33 155 25.0
2015-Jun-30 21:30 155 25.0
2015-Jun-30 21:25 155 25.0
2015-Jun-30 21:21 155 25.0
2015-Jun-30 21:16 155 25.0
2015-Jun-30 21:11 155 25.6
2015-Jun-30 21:06 155 25.6
2015-Jun-30 21:01 155 25.6
2015-Jun-30 20:56 155 25.6
2015-Jun-30 20:51 155 25.6
2015-Jun-30 20:45 155 25.6
2015-Jun-30 20:40 155 25.6
2015-Jun-30 20:35 155 25.6
2015-Jun-30 20:30 155 25.6
2015-Jun-30 20:25 155 26.1
2015-Jun-30 20:20 155 26.1
2015-Jun-30 20:15 155 26.1
2015-Jun-30 20:10 155 26.1
2015-Jun-30 20:05 155 26.1
2015-Jun-30 20:00 155 26.1
2015-Jun-30 19:55 155 26.1
2015-Jun-30 19:50 155 26.1
2015-Jun-30 19:46 155 26.1
2015-Jun-30 19:40 155 26.1
2015-Jun-30 19:35 155 26.7
2015-Jun-30 19:30 155 26.7
2015-Jun-30 19:25 155 26.7
2015-Jun-30 19:20 155 27.2
2015-Jun-30 19:16 155 27.2
2015-Jun-30 19:10 155 27.2
2015-Jun-30 19:05 157 27.2
2015-Jun-30 19:00 157 27.2
2015-Jun-30 18:55 157 27.2
2015-Jun-30 18:50 157 27.2
2015-Jun-30 18:44 157 27.8
2015-Jun-30 18:40 157 27.8
2015-Jun-30 18:35 157 27.8
2015-Jun-30 18:31 157 27.8
2015-Jun-30 18:25 155 27.8
2015-Jun-30 18:20 155 27.8
2015-Jun-30 18:15 154 28.3
2015-Jun-30 18:11 154 28.3
2015-Jun-30 18:05 152 27.8
2015-Jun-30 18:00 151 27.8